{"data":{"norad_id":64089,"epoch":"2026-09-21T22:09:55.627200Z","epoch_age_seconds":72404,"freshness":"FRESH","line1":"1 64089U 25108C   26264.92356050  .00002385  00000+0  13877-3 0  9999","line2":"2 64089  97.4611 337.0488 0006448  76.0542 284.1406 15.12980297 73892","mean_motion":15.12980297,"eccentricity":0.0006448,"inclination_deg":97.4611,"raan_deg":337.0488,"arg_perigee_deg":76.0542,"mean_anomaly_deg":284.1406,"bstar":0.00013877,"rev_number":7389,"period_min":95.176388143011,"perigee_km":522.66451775869,"apogee_km":531.56953335005,"semimajor_km":6905.2540255544,"source":"CELESTRAK","updated_at":"2026-09-22T09:00:29.533043Z"}}